Theta_e
329 328 330 330 331 331 330 329 330 331 331 331 332 333 334 334 334 335 335 334 333 332 332 331 330 329 328 329 329 328 327 326 326 326 326 326 326 326 326 326 326 326 325 325 325 326 326 327 327 326 326 326 325 325 326 329 333 333 333 332 331 331 330 329 329 329 329 329 328 326 325 324 324 325 326 328 329 330 330 331 332 333 333 332 331
331 331 329 329 331 330 329 330 331 332 332 332 332 333 333 333 334 335 335 334 333 333 332 331 331 331 330 329 329 329 328 327 326 326 326 327 327 327 327 327 327 326 327 326 326 326 327 328 328 327 327 326 326 326 325 325 328 331 332 331 331 330 330 330 329 328 329 328 327 328 328 326 325 325 325 325 326 327 328 330 331 331 332 333 332
337 335 330 329 330 329 330 330 331 331 331 332 332 333 333 333 335 335 334 334 333 332 332 331 332 331 331 330 329 330 330 328 327 327 326 327 327 327 327 327 328 327 328 327 326 327 327 328 327 327 327 326 326 326 326 325 325 327 329 331 331 330 330 330 329 329 329 326 327 330 331 331 328 325 325 325 324 325 326 328 329 330 331 331 331
337 337 333 329 329 330 330 330 331 332 332 332 332 333 334 334 334 334 334 334 333 333 332 332 332 332 331 330 330 330 330 329 327 327 327 327 327 328 328 328 329 329 329 328 327 327 327 328 328 327 327 326 326 326 327 326 326 326 327 329 329 328 328 328 329 329 328 326 328 328 326 330 332 326 324 326 325 324 325 326 328 329 329 329 329
334 337 335 331 329 330 330 330 331 332 332 332 332 332 333 333 334 334 334 333 333 333 332 332 332 332 331 330 330 330 330 329 327 327 327 327 328 328 328 329 329 330 330 329 328 328 328 329 329 329 328 328 328 328 328 328 327 326 326 326 326 326 325 325 326 326 325 324 326 328 327 331 332 326 324 326 325 325 325 324 326 328 329 328 328
332 334 333 331 329 329 330 331 332 332 332 332 332 332 333 333 333 333 334 333 332 332 332 332 332 332 331 330 331 331 331 330 328 327 328 328 329 329 329 328 329 330 330 331 331 331 331 331 331 331 330 330 329 329 329 329 329 327 326 326 325 325 325 326 326 325 325 324 324 327 328 329 329 326 327 329 326 325 325 324 325 325 326 327 327
332 332 332 331 329 330 330 331 332 332 332 332 332 332 333 332 332 333 333 332 332 332 332 332 332 332 332 331 331 331 331 330 329 329 329 329 329 330 330 329 330 331 331 332 332 332 332 332 332 332 332 331 331 330 330 330 329 329 328 327 326 326 325 326 326 326 326 326 325 325 325 325 326 326 329 331 329 327 326 325 325 324 324 325 325
332 333 333 332 330 330 330 331 332 332 332 332 332 333 333 332 332 333 333 332 333 332 332 332 331 332 332 332 332 331 331 330 330 330 331 331 330 331 331 331 332 332 332 333 333 334 334 334 333 333 333 333 332 332 331 331 330 330 330 329 328 327 326 326 327 326 326 326 326 325 325 325 325 325 326 328 329 329 327 325 325 324 324 324 324
331 332 333 331 329 330 330 331 332 332 332 332 332 333 333 332 333 333 333 333 333 333 332 332 332 332 333 333 332 332 331 330 331 330 331 331 331 331 332 332 333 333 334 334 334 335 335 335 335 334 334 333 333 333 333 332 331 331 331 331 330 329 328 328 327 327 327 327 327 326 326 326 326 326 326 325 327 329 328 327 326 325 325 324 324
330 331 331 329 329 330 330 331 332 332 333 333 333 333 333 333 334 333 333 333 334 333 333 332 332 332 332 333 333 333 332 331 331 331 331 331 331 332 333 332 333 334 335 335 335 336 336 336 336 335 334 334 334 334 333 333 332 332 331 331 331 330 330 329 329 328 328 328 328 327 327 327 327 327 327 326 326 326 327 326 325 325 325 323 322
330 331 330 328 329 331 331 332 332 332 333 333 333 333 333 333 334 333 333 333 333 333 334 333 333 332 333 333 333 333 333 332 332 331 331 331 331 332 333 333 334 335 335 336 336 337 337 337 336 335 334 334 333 333 333 333 332 331 332 332 331 331 331 330 330 329 329 329 328 328 328 327 328 328 327 326 326 326 326 326 324 324 324 322 320
330 331 331 331 331 331 331 332 332 333 333 333 333 333 332 333 334 333 333 334 333 333 334 334 333 333 334 334 333 333 333 333 333 332 331 331 331 332 333 334 335 336 336 336 337 337 337 336 335 334 333 332 332 332 332 332 332 330 331 331 331 331 331 330 330 330 329 329 329 329 328 328 328 328 327 327 326 326 326 325 324 323 323 322 320
330 330 332 333 333 330 330 332 332 333 333 333 333 333 332 333 334 333 333 333 333 333 334 334 334 334 334 334 333 333 334 334 333 332 331 330 331 332 334 335 336 336 336 336 337 337 336 335 333 332 332 331 330 331 332 331 330 330 330 331 331 331 330 330 330 330 329 329 329 329 328 328 328 328 327 327 326 326 325 324 323 322 322 320 318
329 330 331 333 332 330 330 332 332 333 333 333 333 333 333 334 334 334 333 333 333 333 334 335 335 334 334 334 333 332 333 334 333 332 331 330 331 334 335 335 336 336 336 336 337 337 335 333 332 331 330 330 329 330 331 330 329 329 330 330 330 330 330 329 329 329 329 329 329 328 328 328 328 327 327 327 326 326 325 324 322 321 320 318 316
329 329 331 331 330 329 330 331 332 333 333 333 333 333 334 334 334 334 334 333 333 333 334 334 335 334 334 334 333 333 333 334 333 332 331 331 332 335 335 335 336 336 336 337 337 335 333 332 331 330 330 329 329 329 328 328 329 329 329 329 329 329 329 329 329 329 328 328 328 328 327 327 327 327 327 326 326 325 324 323 322 321 320 318 316
329 329 331 331 329 329 331 331 332 333 333 333 333 334 334 334 334 334 334 334 333 333 334 334 335 334 334 334 333 333 333 333 333 332 331 332 333 335 335 335 336 335 336 337 336 333 332 331 330 330 329 329 329 328 327 328 328 329 329 329 328 328 328 328 328 328 327 327 327 326 326 326 325 324 324 325 325 325 325 323 321 320 320 320 318
329 329 330 331 329 329 331 331 332 333 333 333 334 334 334 334 334 334 334 334 333 334 334 334 334 334 334 334 334 334 333 333 333 331 331 332 333 334 335 335 336 336 336 337 335 333 332 330 329 328 328 329 329 328 327 327 328 328 328 328 328 327 327 326 326 326 326 326 326 325 324 322 321 320 320 321 322 323 324 324 323 321 319 322 321
328 330 330 330 329 329 330 331 332 333 333 333 334 334 334 334 334 334 334 334 333 333 333 334 334 334 334 334 334 334 334 333 333 331 331 332 334 334 335 335 336 336 336 336 335 333 331 329 327 327 328 328 328 327 326 326 327 327 327 327 326 326 325 324 323 323 323 324 324 322 321 318 317 317 316 316 317 318 319 321 323 322 320 320 318
330 330 330 330 329 329 331 331 331 333 333 334 334 334 335 334 334 334 334 335 333 333 333 333 333 334 334 334 334 335 334 333 333 332 332 333 334 334 335 336 336 336 336 336 335 333 331 329 327 326 326 327 327 326 326 325 326 326 326 326 325 324 323 321 321 320 320 320 321 320 319 316 315 315 315 315 314 315 315 316 318 320 320 317 315
330 329 330 330 329 329 330 331 331 332 332 333 334 334 335 334 334 334 334 335 334 333 333 333 333 333 334 334 335 335 334 333 333 333 333 333 334 335 335 335 335 336 336 336 335 333 331 330 327 325 325 326 326 326 326 325 325 325 325 324 323 323 321 320 319 318 318 318 318 317 316 315 315 314 314 314 314 314 313 314 315 316 316 316 315
330 329 330 330 328 328 330 331 331 332 332 333 333 334 334 334 334 334 335 335 334 333 333 333 333 333 334 334 334 335 334 333 333 333 333 334 334 335 335 335 335 335 336 336 336 334 331 330 328 325 324 325 325 325 325 324 324 324 323 323 322 321 319 318 317 317 316 316 315 315 314 314 314 314 313 313 313 313 313 313 314 314 314 315 314
331 330 330 330 328 328 330 331 331 331 332 333 333 334 334 334 334 334 334 335 335 333 333 333 333 333 334 334 334 335 334 333 333 333 333 334 334 335 335 336 335 335 336 336 336 334 332 330 328 326 325 324 324 324 324 324 323 322 322 321 320 319 318 317 316 316 315 315 314 314 313 313 312 312 312 311 312 312 313 313 313 314 314 313 313
331 330 331 330 328 328 330 331 331 331 332 332 333 333 334 334 334 334 334 335 335 334 333 333 334 334 334 334 334 334 334 334 334 334 333 333 334 334 335 335 335 336 336 336 336 335 333 331 329 327 325 324 323 323 323 323 322 321 321 320 319 317 315 314 313 313 313 313 313 312 311 310 310 309 309 309 310 310 311 312 312 313 313 312 312
332 332 334 331 327 328 330 330 331 331 331 332 332 333 333 334 334 334 334 334 335 334 333 333 333 334 334 334 334 334 334 334 334 334 334 333 333 334 334 335 336 336 336 336 336 335 333 331 330 328 326 324 323 322 322 323 322 321 320 319 318 316 313 310 310 310 310 310 310 309 308 307 306 306 305 305 306 307 308 309 310 310 311 311 311
335 334 337 336 332 331 330 330 331 331 331 332 332 333 333 333 334 334 334 334 334 334 334 333 333 333 334 334 334 335 334 334 334 334 334 333 333 334 334 335 335 336 335 335 336 335 334 332 330 329 327 325 323 322 321 322 321 320 319 318 318 316 311 307 307 308 309 308 307 306 305 304 303 302 302 301 301 302 302 303 303 304 304 305 304
335 336 338 337 335 332 329 330 331 330 331 331 331 332 332 333 333 334 334 334 334 334 334 333 333 333 334 334 334 334 334 334 335 335 334 333 333 334 334 334 335 336 335 334 335 336 335 333 332 330 328 326 324 322 321 321 320 320 319 318 317 314 309 305 305 306 307 306 304 303 303 302 302 301 301 300 299 298 298 298 298 298 298 298 297
335 336 337 336 335 333 330 330 331 331 331 331 331 332 332 333 333 333 334 334 333 334 334 333 334 333 333 334 334 334 334 334 335 335 335 334 333 334 334 335 335 336 335 334 335 336 335 334 333 331 329 326 324 323 321 320 320 319 318 318 316 312 306 303 304 304 304 303 302 302 302 302 302 302 303 302 301 300 300 299 299 298 298 298 298
337 337 339 337 336 335 332 330 330 331 331 331 331 332 332 333 333 333 334 333 333 334 334 334 334 334 334 333 334 334 334 334 335 335 335 335 334 334 335 335 336 336 336 335 335 335 335 335 334 332 329 327 324 323 321 320 319 319 318 317 314 310 305 302 303 303 302 302 301 302 303 303 303 304 304 304 303 303 303 302 302 301 301 300 299
337 336 338 336 336 337 335 331 330 331 331 331 331 331 332 332 332 333 333 333 334 334 334 334 334 334 334 333 334 334 334 334 334 335 335 335 335 335 335 335 336 337 337 336 335 335 335 335 334 332 329 327 324 323 322 320 319 318 317 316 313 308 305 303 302 302 302 302 302 303 304 305 305 305 305 305 305 304 304 303 303 303 302 301 299
337 336 336 335 336 337 332 330 331 331 331 331 330 331 331 332 332 333 333 333 334 334 334 334 334 334 334 333 333 334 334 334 334 335 335 335 335 335 335 335 336 336 337 336 336 335 335 335 334 332 329 326 324 323 322 320 319 318 317 315 311 307 305 304 302 302 302 303 303 304 305 306 306 306 306 307 306 305 304 304 305 305 303 301 298
336 336 337 337 338 338 334 330 330 331 332 331 331 331 331 332 332 332 333 333 333 334 334 334 334 334 334 333 333 334 334 334 334 334 335 335 335 335 336 336 336 335 336 336 336 336 335 334 334 333 330 327 325 323 322 320 319 318 316 314 311 307 306 305 303 302 302 304 305 305 306 306 307 307 308 307 307 306 305 305 306 305 302 298 297
333 333 334 334 335 337 335 330 329 331 332 332 332 332 331 331 332 332 332 333 333 333 334 334 334 334 334 334 334 333 334 334 334 334 335 335 335 335 335 335 335 335 335 336 336 336 335 334 334 332 330 328 326 324 322 320 318 317 316 314 311 309 307 306 304 302 302 304 305 306 306 307 307 307 307 308 307 306 305 305 304 301 299 298 299
331 331 332 331 331 332 331 329 329 330 331 332 332 333 332 332 332 332 333 333 333 333 333 334 334 334 334 334 334 334 334 334 334 334 334 335 335 335 335 335 335 335 335 336 336 336 335 334 333 332 330 328 327 324 322 320 318 317 315 313 311 310 309 308 306 303 301 302 305 307 306 307 308 307 306 306 306 305 305 304 301 299 299 300 300
329 330 330 330 329 329 329 329 330 330 330 331 332 332 333 333 333 333 333 333 333 333 333 333 334 334 334 334 334 334 334 334 334 334 334 335 334 335 335 335 335 335 334 335 335 335 335 334 333 332 330 329 327 325 322 320 318 316 315 313 311 310 311 310 308 305 302 300 303 306 307 307 307 305 304 304 304 304 304 302 300 300 301 301 301
327 328 329 329 329 329 329 329 329 329 329 330 330 331 332 333 334 334 333 333 333 333 333 333 333 333 334 333 333 334 334 334 334 334 334 334 334 334 335 335 335 334 334 335 335 335 335 335 333 332 329 328 327 325 323 320 317 316 314 313 311 311 311 311 309 308 304 300 301 305 306 305 305 304 303 302 302 302 302 300 300 301 301 301 301
324 326 327 328 328 329 329 329 329 328 328 328 328 329 330 331 333 334 334 334 334 333 333 333 333 333 333 333 334 333 334 334 334 334 334 334 334 334 334 334 334 334 334 335 335 335 335 334 334 332 329 327 326 325 322 320 318 316 314 312 311 311 312 311 310 309 306 300 300 303 305 305 304 304 303 301 300 300 299 299 300 301 301 301 301
322 323 325 326 327 328 329 329 329 329 329 329 329 329 329 329 330 332 333 334 333 333 334 333 333 334 333 333 334 333 334 334 334 334 334 334 334 334 334 334 334 334 334 334 334 335 335 334 333 331 329 327 326 325 322 320 318 316 313 312 311 312 312 311 311 310 306 300 299 302 304 305 305 304 303 300 298 298 298 299 300 300 300 300 301
321 322 323 324 325 326 327 328 329 329 329 330 329 329 329 328 328 329 331 332 333 333 333 333 334 334 334 334 334 334 334 334 334 334 334 334 334 334 334 334 334 334 334 334 334 335 334 334 333 332 331 329 328 326 323 320 318 315 313 312 312 312 312 311 310 308 304 300 299 301 304 305 305 303 300 297 296 297 297 299 300 300 300 300 300
322 323 323 324 325 325 325 327 327 328 329 329 330 330 329 328 328 328 329 330 331 331 331 332 333 333 334 334 334 334 334 334 334 334 334 334 333 333 333 333 334 334 334 334 334 334 333 332 331 331 331 329 328 327 323 320 317 315 313 312 312 312 311 309 309 306 301 298 299 301 304 304 301 298 296 295 296 297 297 299 300 300 300 300 300
324 324 324 325 325 325 325 325 326 326 328 328 329 330 329 329 329 329 329 329 329 329 330 330 330 331 332 333 334 334 334 334 334 334 333 333 333 333 333 333 333 333 334 334 333 332 330 330 330 329 328 328 328 326 322 319 317 314 313 312 312 312 311 309 309 307 302 298 297 299 300 299 296 294 295 296 297 297 298 299 299 300 300 299 300
324 324 324 325 325 324 324 324 325 326 326 327 328 328 327 327 328 328 329 329 329 330 330 329 330 330 330 331 332 333 334 334 334 334 334 333 333 334 333 332 333 333 333 333 332 331 329 328 327 325 324 324 324 324 322 320 317 314 313 312 312 313 312 311 309 309 307 302 297 295 295 295 294 295 296 297 298 298 298 299 299 299 300 300 301
323 323 323 323 324 323 322 322 322 324 326 326 327 327 326 326 326 327 328 329 330 330 330 330 329 329 329 329 329 331 332 333 334 334 333 334 334 332 331 331 332 332 332 333 332 329 327 324 322 321 320 320 320 319 318 318 316 313 312 312 313 313 313 312 310 308 308 305 298 294 294 294 294 295 297 298 298 299 299 299 300 300 301 301 302
321 321 322 322 322 321 320 319 320 322 325 326 326 326 326 326 326 326 326 326 327 328 328 328 328 328 329 329 329 329 330 331 332 333 333 333 333 331 328 329 330 331 331 331 329 327 323 319 319 320 319 318 317 316 315 315 314 313 312 313 313 312 312 313 311 309 309 307 300 294 294 294 294 296 298 298 299 299 300 300 300 301 302 302 302
319 319 320 320 320 319 319 318 318 320 322 323 324 325 326 326 327 326 326 325 325 325 325 326 326 327 329 330 330 330 330 330 331 331 331 331 331 330 328 328 330 331 330 329 327 324 320 317 317 318 316 314 314 314 314 314 315 314 313 313 313 312 312 312 312 310 310 309 302 295 294 294 294 296 298 299 300 300 300 300 301 302 303 302 301
316 317 318 318 318 317 317 317 317 318 319 319 320 321 321 323 325 327 327 326 325 324 324 325 325 326 328 329 329 329 329 329 329 329 330 330 329 328 328 328 329 329 329 327 324 321 317 315 315 316 314 311 311 312 312 313 314 314 313 313 313 313 312 312 311 311 311 311 305 297 294 295 295 297 299 299 299 300 300 301 302 303 303 302 300
313 315 316 316 316 315 315 315 315 316 317 317 317 318 318 318 321 325 328 327 325 325 325 325 325 325 327 328 328 328 328 328 328 328 328 329 329 328 327 327 327 327 326 324 321 317 315 313 313 313 311 310 310 310 311 313 313 313 313 313 313 313 312 312 312 311 312 312 306 298 295 295 296 298 300 299 299 300 300 301 302 303 302 301 299
312 312 313 314 314 313 313 313 313 313 314 315 316 317 317 317 319 322 326 327 327 326 326 325 325 325 326 327 327 327 327 327 327 326 326 327 327 327 326 325 325 324 322 320 317 314 313 312 311 310 309 309 309 309 310 311 311 311 311 312 312 313 312 311 312 311 310 311 307 300 296 296 297 298 299 299 300 300 300 301 302 303 301 299 299
310 311 311 312 312 312 312 311 312 312 312 313 315 317 318 318 318 320 322 325 326 327 326 326 326 326 326 326 326 326 326 325 325 325 324 325 325 324 324 324 323 323 321 319 316 315 313 312 311 310 308 308 308 308 309 309 309 310 311 311 312 312 311 311 311 310 310 310 307 300 296 295 297 298 299 299 300 300 301 302 302 301 300 299 298
309 309 310 310 310 310 310 310 310 311 310 312 315 316 316 318 318 319 319 321 323 324 325 325 325 326 326 326 326 326 326 325 324 324 323 322 322 322 322 321 320 320 320 319 318 317 316 314 312 311 310 308 307 308 308 309 309 309 310 312 312 312 311 310 310 309 309 308 303 298 295 295 297 298 298 299 300 300 301 302 302 300 298 298 297
307 308 308 308 308 309 309 308 309 309 310 312 314 315 314 315 316 316 318 318 319 321 321 322 323 324 324 325 326 326 326 325 324 323 322 320 320 319 319 319 318 318 318 317 317 317 316 313 312 311 310 309 309 309 309 308 309 309 311 312 312 311 311 311 310 310 309 306 300 296 296 296 297 298 299 299 300 301 302 301 300 298 298 297 297
306 306 307 307 307 307 307 307 308 308 308 311 314 314 313 313 313 313 314 315 317 318 319 320 321 322 323 324 324 325 326 325 325 324 322 320 319 318 317 317 317 316 316 316 315 315 314 313 311 310 310 309 309 309 308 308 308 310 310 310 310 309 310 310 310 309 308 304 300 297 297 296 297 298 299 299 301 302 301 299 298 297 297 297 296
Wind_Speed
6 8 9 11 13 14 15 17 18 18 16 13 12 11 9 8 7 6 5 4 5 5 4 6 7 7 7 6 6 6 6 7 9 10 11 11 11 10 9 8 7 7 7 8 9 10 10 9 8 9 11 13 14 14 12 11 11 11 12 12 12 11 11 11 10 11 14 14 15 19 23 24 22 22 22 21 20 20 20 21 20 20 20 20 19
3 6 8 10 12 13 15 18 20 19 18 15 14 12 10 9 8 7 5 5 5 5 4 5 5 6 7 7 7 6 6 5 6 8 9 9 8 8 7 7 6 7 8 8 8 10 10 10 10 10 11 12 14 14 12 10 10 10 11 12 12 11 9 8 7 7 9 8 8 10 14 19 22 23 23 21 19 18 18 19 20 20 20 19 19
4 6 8 11 13 14 16 18 20 20 19 17 15 13 12 10 9 7 6 5 5 6 5 5 5 5 6 8 7 6 6 5 4 5 6 6 6 6 6 6 6 8 9 9 9 10 11 12 12 12 12 12 13 14 13 12 11 10 11 12 12 11 8 6 5 6 6 6 5 4 3 7 13 17 20 20 18 17 17 17 18 19 19 19 18
6 5 6 10 13 14 16 18 20 19 18 18 16 15 14 12 10 8 7 6 6 7 6 6 6 5 7 9 8 6 6 5 5 4 4 5 6 6 6 6 7 8 10 11 11 11 11 12 12 12 12 12 13 15 15 14 13 12 12 12 12 12 9 6 5 4 2 3 3 3 1 1 4 7 12 18 19 17 16 16 16 17 18 19 19
7 7 6 8 12 15 17 19 19 19 19 19 18 17 15 12 11 8 7 7 7 8 8 7 7 7 8 10 9 7 6 6 5 4 4 5 6 6 6 7 8 9 10 11 11 11 10 11 11 11 12 12 12 14 15 15 14 13 13 13 13 15 13 11 10 6 5 5 4 3 2 2 1 1 5 13 19 20 17 15 15 16 16 17 18
8 8 7 8 12 15 16 18 19 20 21 20 19 17 15 12 11 9 7 7 7 8 8 8 8 10 10 11 10 9 7 6 6 5 4 5 5 6 7 7 7 8 9 9 9 9 9 9 10 10 11 11 11 12 13 14 14 14 13 14 15 16 17 17 16 14 13 12 9 6 5 5 4 2 2 5 13 20 19 16 14 14 15 16 16
7 7 7 9 12 14 15 18 21 22 22 21 19 18 15 13 13 11 9 8 8 8 9 9 11 11 11 11 11 10 8 7 7 6 4 4 5 6 7 7 6 6 6 7 7 8 8 8 8 9 9 10 10 11 11 12 12 13 13 13 14 14 16 17 16 15 15 15 14 13 11 10 9 6 3 2 4 11 17 19 16 13 13 15 15
7 7 8 9 13 16 18 21 23 24 22 21 20 19 16 14 14 13 10 10 9 9 11 11 12 11 10 10 10 10 9 8 8 7 5 5 6 7 7 7 6 6 6 6 6 7 7 6 6 7 7 8 9 9 10 10 10 11 11 11 12 12 12 13 13 13 14 14 15 16 15 14 13 10 9 7 4 2 7 14 18 18 17 17 15
8 9 10 10 15 19 21 23 24 23 22 21 21 20 17 15 15 13 12 11 10 11 12 11 10 10 10 9 8 8 8 9 10 8 6 6 7 7 6 6 6 6 6 5 5 4 4 4 4 5 5 6 7 7 8 8 8 8 8 9 10 10 10 11 12 12 13 13 14 15 17 17 16 15 13 11 7 3 2 4 10 18 20 21 21
8 9 10 13 18 20 21 22 23 23 22 22 21 20 19 17 15 14 13 12 12 12 12 12 11 10 9 9 8 8 8 10 11 10 8 7 7 6 6 6 6 5 4 3 3 2 2 2 2 2 3 4 4 5 5 6 6 6 7 7 8 9 9 10 11 12 11 12 11 12 14 13 12 11 11 12 10 8 6 2 7 13 13 19 25
8 7 8 10 15 17 17 19 21 22 22 22 21 21 20 19 17 15 15 13 12 12 13 12 11 11 9 8 9 10 10 11 11 11 9 8 7 6 6 6 6 5 3 1 1 1 1 1 1 2 3 3 3 4 4 5 6 6 6 6 7 8 9 9 10 11 11 12 12 13 13 12 10 8 7 10 9 7 7 4 8 14 13 15 22
8 7 7 8 10 12 15 18 19 20 21 22 23 22 22 20 18 17 16 14 13 13 13 13 12 12 10 9 10 11 11 12 12 11 11 10 8 7 7 7 6 4 2 0 1 1 1 1 2 3 3 4 4 4 5 5 6 6 7 7 8 9 9 10 11 12 12 13 14 13 14 13 13 11 8 10 14 15 13 5 4 11 12 12 17
8 8 8 8 8 11 15 17 18 20 22 23 24 24 23 22 20 19 18 16 14 14 14 13 13 12 11 10 11 12 12 12 12 11 11 10 9 9 8 7 5 3 1 1 1 1 1 2 3 4 5 5 5 5 5 6 6 7 8 9 10 10 10 11 13 13 13 14 14 13 14 14 14 11 9 12 16 19 18 9 6 9 10 11 16
8 8 9 8 9 12 16 19 20 21 23 25 25 25 25 24 22 21 19 17 16 15 15 14 13 12 11 10 12 12 13 13 12 12 11 10 10 10 9 7 5 2 1 1 0 2 2 3 4 5 6 6 7 7 7 6 6 8 10 11 11 11 11 12 13 13 14 14 13 13 14 14 13 11 10 12 14 16 18 15 10 11 11 12 15
8 8 9 9 12 16 18 20 21 23 25 25 26 26 26 26 25 23 21 19 18 17 17 16 14 12 11 11 13 13 12 12 12 12 12 11 12 11 9 7 4 2 2 1 2 3 2 3 3 4 6 6 7 7 7 6 6 8 10 11 12 11 10 12 12 12 13 13 13 14 14 14 12 11 10 10 12 14 17 19 17 10 7 8 9
8 9 9 10 13 17 19 20 22 24 25 26 27 27 27 27 27 25 23 21 20 19 19 18 16 14 13 12 13 13 13 13 13 12 12 12 13 11 9 6 4 3 3 2 3 3 2 2 3 4 5 6 6 6 6 7 7 9 10 11 12 11 11 12 12 12 13 14 14 14 14 14 13 12 11 10 10 11 12 14 17 15 9 4 3
9 9 10 10 13 17 20 22 23 24 25 27 28 29 29 28 28 26 24 23 22 20 20 20 19 17 16 14 14 15 15 14 14 14 13 13 13 11 9 7 5 4 4 4 5 4 1 1 2 3 4 5 6 6 6 7 7 8 9 10 11 11 11 12 12 12 13 13 14 14 15 15 14 13 13 12 10 8 7 6 9 13 14 7 2
9 9 9 9 12 16 20 22 24 26 27 28 29 29 29 28 28 27 26 25 24 22 21 20 21 20 18 17 16 15 16 16 15 14 14 14 14 12 10 8 6 6 6 5 6 5 2 1 1 3 4 5 5 5 6 7 7 8 9 10 10 10 10 12 12 12 13 13 13 15 15 15 14 13 14 13 11 10 8 6 4 6 10 10 8
7 7 7 8 11 16 20 21 24 25 26 28 29 29 28 28 28 28 27 26 25 24 22 21 21 21 20 19 17 15 16 17 17 16 15 16 16 14 11 9 8 8 7 7 7 6 4 3 2 3 4 4 4 5 6 6 7 8 9 10 10 9 10 12 12 12 12 11 12 14 14 14 13 13 13 12 12 11 9 8 6 5 7 14 18
8 9 9 9 12 18 22 23 24 25 26 26 27 27 28 28 28 28 28 26 25 25 24 22 22 22 21 20 17 16 16 18 17 17 17 17 16 14 12 11 10 9 9 8 8 8 6 4 3 3 4 5 5 5 6 7 7 8 9 9 9 8 9 11 11 11 11 10 11 12 13 13 11 11 12 11 11 11 10 9 9 10 12 15 21
8 9 10 9 12 17 21 22 23 25 25 25 25 27 28 28 28 28 28 27 26 26 25 24 23 23 23 22 19 17 17 18 18 18 18 18 17 15 13 12 11 11 10 9 10 9 8 6 4 4 4 5 6 6 7 7 7 8 8 8 8 7 8 10 10 10 9 9 9 11 12 11 9 9 10 11 11 10 11 12 12 13 16 16 18
9 9 9 8 10 15 18 19 21 22 22 24 25 26 27 27 28 28 28 28 28 27 26 25 24 24 24 23 21 18 18 18 19 20 20 19 18 16 15 14 13 12 11 11 11 11 10 8 6 5 5 6 6 6 7 7 6 7 8 7 6 5 6 7 8 8 8 8 8 9 10 9 8 8 10 10 11 11 11 13 15 15 17 17 16
9 8 7 7 9 13 16 18 20 20 21 23 25 26 27 28 29 28 28 30 29 28 27 26 25 24 24 24 22 21 20 19 20 21 22 22 20 18 16 16 15 14 13 12 13 12 12 11 9 8 7 7 7 7 7 7 6 5 6 6 5 4 4 5 6 7 8 7 6 7 8 8 7 8 11 11 11 12 11 13 15 14 15 16 14
7 7 6 6 9 12 14 16 18 20 21 23 24 26 27 28 28 29 29 31 30 29 28 27 27 26 25 25 24 23 22 22 21 21 23 23 21 19 18 18 17 17 15 15 14 15 14 14 12 11 10 9 9 9 8 8 7 6 5 5 5 4 3 4 5 7 7 6 5 7 8 7 7 9 12 12 11 12 12 13 14 14 14 14 13
7 7 7 7 9 10 12 16 18 20 22 23 24 25 26 27 28 28 29 30 30 29 28 28 28 27 26 26 26 25 24 24 23 22 23 24 23 21 20 20 20 19 18 17 17 17 17 17 16 15 13 12 11 10 10 10 9 8 7 6 5 4 4 5 6 6 6 5 5 6 8 7 7 10 13 12 12 13 13 14 15 15 15 15 14
6 7 7 8 8 8 10 14 17 19 21 22 23 24 24 25 27 28 29 29 30 30 29 29 29 29 28 28 28 27 27 26 25 23 23 25 25 23 22 22 22 21 20 20 20 20 20 20 19 18 17 15 14 13 12 12 12 11 10 8 7 6 6 6 7 7 6 6 5 7 9 8 8 10 13 13 13 14 14 15 16 17 17 16 16
4 5 5 5 5 5 6 10 14 16 18 21 22 24 25 26 27 28 28 29 29 30 29 29 30 30 30 30 30 30 29 28 27 25 24 25 26 26 24 24 24 24 23 23 23 22 22 22 22 21 20 18 16 15 15 15 14 13 13 11 9 8 8 8 8 8 7 7 7 8 9 9 9 10 12 13 13 14 15 16 16 16 15 15 15
6 6 7 7 7 6 7 11 14 16 19 21 23 25 26 27 28 28 29 29 29 29 29 30 30 30 31 32 31 31 31 30 29 27 26 26 28 28 27 26 26 27 26 26 26 25 25 25 24 24 23 21 20 19 18 17 17 16 15 13 12 11 11 11 11 10 10 9 9 10 10 10 11 11 11 11 11 12 14 15 14 13 13 13 13
3 3 4 5 6 7 8 12 16 18 19 20 22 24 25 26 27 27 28 29 29 29 29 29 30 31 32 33 32 32 32 31 30 29 28 28 28 29 29 29 29 29 29 28 28 27 26 27 27 26 26 25 23 22 21 20 19 18 17 16 14 14 13 13 13 13 12 11 11 11 12 12 12 12 12 11 10 9 11 13 13 11 10 11 11
3 3 3 4 5 5 6 9 13 16 18 18 20 22 23 25 26 26 28 29 29 29 29 30 30 32 32 33 33 33 32 32 32 32 32 31 30 30 30 30 30 30 30 30 29 28 28 28 29 29 29 28 27 25 23 22 21 20 20 19 17 16 15 15 15 16 15 14 14 14 14 14 14 13 12 11 11 10 9 11 11 9 8 9 9
7 5 4 2 2 3 5 7 9 12 15 18 19 20 22 24 25 27 29 30 30 29 30 30 31 32 33 33 33 34 33 34 34 34 34 33 32 32 32 31 31 31 31 31 30 30 30 30 30 31 31 31 30 28 26 24 23 22 21 21 20 19 18 17 17 17 18 18 17 16 16 16 15 14 13 12 12 11 10 10 9 8 7 7 8
10 9 8 7 5 3 1 4 5 9 14 18 19 20 22 24 26 28 29 29 30 30 31 32 33 33 33 33 34 34 34 34 35 34 35 35 34 34 34 33 33 33 33 33 32 32 32 32 32 33 34 33 32 30 28 27 25 25 24 23 22 22 20 19 19 18 19 20 19 18 17 16 16 14 14 13 13 12 10 9 8 8 10 10 10
11 10 10 9 8 8 9 8 7 7 11 15 18 20 22 25 27 28 27 27 29 31 32 33 34 34 34 35 35 35 35 35 35 35 35 35 34 35 35 35 35 34 34 34 34 34 34 34 34 35 36 35 34 32 30 29 28 27 26 25 24 23 22 21 20 20 20 20 20 19 18 18 17 15 14 14 14 13 11 10 10 11 13 13 12
11 10 10 9 9 11 13 14 14 13 10 10 16 21 23 24 25 25 26 27 29 31 32 33 34 34 34 35 34 34 35 36 36 35 34 34 35 36 37 37 36 34 34 34 35 35 35 35 36 37 38 37 37 35 33 31 30 29 28 27 26 25 23 22 22 20 20 20 21 21 20 20 19 17 15 14 14 14 13 12 12 13 14 13 12
10 11 10 10 12 14 15 17 19 19 16 9 9 18 21 22 23 25 26 27 28 29 31 32 33 33 33 33 33 33 35 36 36 35 34 35 36 37 37 37 36 35 35 35 35 36 37 37 38 38 38 39 39 38 36 34 32 32 31 30 29 27 26 24 23 21 19 20 21 21 21 21 20 18 16 14 14 14 14 14 14 14 13 12 10
9 10 10 13 16 16 16 18 18 20 22 19 12 9 16 20 23 24 24 25 26 27 29 31 32 33 33 33 33 33 35 36 35 34 34 35 37 37 37 36 35 35 36 36 36 38 39 39 39 39 39 40 40 39 38 36 34 34 34 33 31 30 28 27 25 22 21 20 22 22 21 21 20 18 16 14 14 14 15 15 15 15 14 12 10
11 13 14 17 19 19 19 20 20 23 26 25 22 12 9 17 20 20 20 23 25 27 28 29 31 32 33 32 33 33 34 35 35 33 34 36 37 37 36 35 34 34 36 37 38 40 41 41 40 40 40 40 41 41 41 39 38 37 37 36 34 32 30 28 27 24 23 22 22 22 22 22 21 19 17 15 14 15 16 17 17 16 15 13 11
14 18 19 21 21 21 22 23 25 27 27 25 25 21 11 6 12 16 19 21 22 22 23 26 29 31 31 31 32 33 34 35 34 34 36 38 38 36 34 33 33 34 35 38 40 41 41 42 41 41 42 42 43 44 43 41 40 41 41 39 37 34 32 30 28 26 24 23 22 22 23 23 22 20 18 17 16 16 18 19 18 18 16 13 10
15 18 20 21 20 21 23 26 27 27 26 25 25 25 22 15 7 4 8 13 15 17 19 21 23 25 28 30 31 32 34 34 34 35 36 34 30 27 25 25 27 30 34 37 39 39 39 40 40 42 43 43 44 44 44 44 44 44 44 41 38 36 34 32 31 29 26 24 24 24 24 23 22 20 19 19 18 18 19 19 19 19 17 14 10
15 18 19 18 18 20 21 24 25 25 26 26 25 25 24 21 16 12 8 7 10 12 13 16 19 20 22 26 29 30 32 33 33 34 32 28 26 27 25 24 26 29 33 35 37 37 36 37 39 41 42 43 44 44 44 45 46 46 46 43 40 38 36 35 34 32 30 27 26 26 25 23 22 22 21 20 19 19 19 19 19 19 17 14 12
13 16 16 16 18 19 20 21 22 23 25 26 25 24 24 22 21 18 14 11 11 13 13 12 14 16 18 20 23 27 31 33 34 33 30 29 33 35 34 33 32 33 34 36 36 36 35 36 37 38 39 41 42 43 45 47 49 50 48 45 42 40 39 38 37 35 33 31 29 28 26 24 23 23 23 22 21 20 19 19 19 17 15 13 12
15 16 17 17 17 20 22 23 23 22 22 23 24 23 22 23 23 23 20 16 12 13 15 14 13 12 12 15 18 21 25 29 31 32 32 33 34 33 30 29 30 31 33 35 35 33 32 32 33 34 36 38 39 40 42 45 49 49 47 44 43 40 38 39 38 36 34 33 31 30 28 26 25 24 24 24 23 21 20 19 17 16 14 12 12
16 17 18 18 18 20 22 24 25 25 22 20 20 20 20 21 22 21 21 19 18 17 16 15 15 14 12 11 12 14 17 21 24 26 29 31 31 28 26 26 28 29 30 30 30 30 29 28 30 34 37 39 39 39 39 42 46 47 45 43 41 38 36 38 38 37 36 33 31 30 29 27 26 26 26 26 24 23 21 19 17 15 13 12 12
17 18 19 19 19 19 21 24 27 28 26 23 21 19 19 20 19 19 19 19 19 19 19 18 17 17 15 12 10 9 9 12 15 19 21 24 25 25 25 25 26 26 27 28 29 30 29 28 31 35 35 35 38 39 39 42 47 48 46 43 40 36 35 37 36 35 35 33 30 30 29 27 27 27 27 27 26 24 22 19 17 16 14 14 14
19 20 20 19 18 19 21 23 26 27 26 25 24 23 22 21 19 17 17 18 18 19 20 19 19 19 17 14 11 9 7 6 8 11 13 17 20 21 21 23 24 24 27 29 30 29 29 29 32 34 32 32 35 36 37 41 46 47 45 43 41 38 36 35 34 33 33 32 30 29 27 26 28 29 28 27 26 24 21 19 17 17 17 16 16
21 21 21 20 20 22 23 23 25 27 26 24 24 24 23 24 22 18 16 16 17 19 20 20 19 19 19 17 14 12 10 8 7 6 8 12 16 17 18 21 23 25 27 28 26 26 26 26 27 28 27 28 30 31 33 38 41 43 42 41 40 37 33 33 33 33 33 32 30 29 28 28 30 31 30 28 26 23 21 19 18 18 18 17 17
20 20 21 21 22 22 22 22 24 26 26 25 25 25 24 24 25 22 18 16 16 18 20 20 19 18 18 17 16 15 13 10 8 8 9 11 14 16 17 20 22 24 24 22 20 21 22 23 23 23 23 25 27 28 30 34 36 38 39 39 38 34 31 32 34 33 32 32 32 31 30 30 31 31 30 28 25 22 20 19 20 20 19 18 16
20 21 22 22 22 21 21 21 23 25 26 26 26 26 25 25 25 24 21 19 17 17 18 18 18 17 17 17 16 15 14 12 10 10 11 12 13 14 15 18 20 21 21 21 21 23 26 27 25 23 22 23 23 25 29 32 34 36 37 38 35 33 32 33 34 33 33 33 33 33 32 32 32 31 29 27 24 22 21 21 21 21 19 18 16
20 21 21 21 20 20 21 22 23 24 26 26 25 26 26 25 25 25 23 22 20 18 17 17 16 16 16 16 16 15 14 13 13 12 11 11 11 11 13 16 17 18 20 22 23 26 29 30 29 28 27 26 25 27 32 34 35 35 36 35 33 34 35 34 34 34 33 32 33 33 33 32 32 31 29 27 24 22 22 22 22 21 20 19 18
19 20 21 21 20 20 20 22 23 25 25 25 24 25 26 26 26 26 26 25 23 21 20 19 18 18 17 15 15 15 15 14 14 13 12 10 10 9 10 12 14 15 17 20 22 24 25 26 26 28 28 27 28 31 34 34 34 34 34 33 34 36 35 32 32 34 33 31 32 33 32 32 33 32 30 28 25 24 24 25 24 23 21 20 18
18 19 20 20 20 20 20 21 23 24 25 24 23 24 26 27 27 27 27 27 26 25 24 23 22 21 19 17 16 15 14 14 14 13 12 11 10 9 8 9 10 12 13 15 18 21 21 21 22 23 24 24 25 27 30 33 35 36 36 36 37 36 34 31 32 32 31 30 32 32 32 33 33 32 30 29 27 26 28 27 26 24 22 20 18
Wind_Direction
225 220 215 207 205 201 198 192 185 181 182 186 185 182 178 172 171 169 166 164 163 166 151 140 136 133 132 115 93 86 89 88 87 93 98 97 93 89 86 83 78 82 89 89 88 90 92 96 100 89 81 81 84 88 95 111 121 122 118 114 112 108 98 90 87 85 80 76 77 75 71 69 68 68 68 67 67 67 67 68 69 72 72 72 73
179 195 198 199 200 195 191 186 183 183 184 188 189 187 183 181 180 180 180 176 174 179 178 166 153 146 144 127 103 92 96 99 94 95 96 93 88 83 80 81 83 84 86 90 91 91 92 92 92 89 82 79 84 88 93 107 124 134 134 126 121 116 106 96 91 85 74 67 73 75 67 66 68 69 71 71 69 70 72 71 70 73 74 74 76
192 193 187 191 193 189 187 185 185 188 188 190 192 191 190 187 185 188 193 190 188 191 196 193 172 157 155 141 119 99 98 109 110 100 95 88 80 78 80 86 92 86 80 87 98 99 95 93 92 90 87 85 87 90 92 99 113 129 139 136 128 119 110 103 96 87 77 72 73 66 51 60 60 58 62 68 74 76 77 77 74 74 76 78 80
209 205 189 186 187 188 189 187 187 188 190 191 192 194 195 192 189 191 198 201 205 205 207 208 184 157 154 147 132 115 108 117 126 114 95 84 76 79 90 97 95 89 83 87 97 103 99 93 90 89 90 90 89 89 89 92 102 115 127 135 133 119 105 98 107 108 81 81 87 73 58 71 58 50 52 60 72 80 79 80 79 77 78 79 80
201 203 195 185 185 190 192 190 187 188 191 193 194 195 195 194 190 190 201 206 211 208 206 211 189 157 151 148 138 130 122 124 133 127 106 92 80 83 104 109 99 94 91 90 95 99 96 88 84 85 87 88 85 84 84 86 93 103 112 120 122 116 105 93 92 97 93 99 127 135 95 78 101 136 65 58 65 72 76 85 87 83 81 78 78
198 197 192 190 189 190 193 192 189 191 195 196 195 195 195 194 189 187 196 196 196 197 196 196 179 158 153 153 148 142 137 134 133 130 119 103 88 94 116 121 109 103 100 95 95 93 90 84 79 79 80 79 77 78 80 81 85 92 101 109 110 111 108 97 87 85 86 84 90 99 97 121 154 155 94 66 63 64 67 80 90 91 88 82 79
195 192 186 190 188 186 192 194 193 195 197 198 197 197 196 195 189 187 189 185 184 186 182 175 168 161 158 159 158 155 154 149 139 132 120 112 113 115 122 126 118 112 107 99 92 87 84 80 75 73 74 74 74 75 77 76 78 84 92 101 108 111 109 102 95 91 88 79 80 85 88 109 132 133 123 125 78 59 59 67 80 95 96 85 77
186 187 187 191 190 189 192 194 196 198 197 198 198 199 199 196 189 189 189 186 186 184 178 172 168 169 168 166 168 168 168 162 152 145 133 127 134 132 131 130 121 110 103 94 88 83 79 75 69 67 68 73 76 76 76 74 75 79 83 90 100 104 103 105 106 104 99 90 86 88 87 94 105 115 122 119 113 80 54 61 74 88 90 81 76
184 187 189 191 193 194 194 194 197 198 197 199 200 200 200 196 191 192 192 188 188 187 183 180 179 181 182 180 179 178 177 172 166 163 156 148 147 144 141 138 128 113 102 91 84 80 72 64 60 62 67 73 78 78 76 75 75 76 77 80 87 92 95 101 105 106 106 104 98 94 92 92 90 94 104 101 91 96 89 46 70 82 78 69 71
189 192 191 193 195 196 193 192 195 196 197 200 201 200 199 197 195 195 192 188 191 193 190 190 193 194 196 197 191 183 180 176 175 175 174 170 166 159 151 147 144 131 114 97 84 69 48 33 36 74 84 78 81 85 82 83 85 80 77 80 86 90 92 95 97 99 101 102 103 101 98 96 92 88 91 91 81 76 88 73 66 78 73 61 63
188 189 189 189 191 192 190 191 194 195 197 200 201 201 199 198 198 195 192 190 195 199 197 198 201 203 209 212 202 189 183 182 181 182 185 187 183 174 161 154 154 148 133 107 65 27 3 11 52 93 95 87 87 88 90 95 95 85 82 90 96 96 96 97 97 97 95 94 93 93 92 91 94 96 101 106 106 99 99 90 74 82 83 70 62
178 178 176 169 173 182 186 191 193 192 195 198 199 200 199 198 198 196 194 194 199 201 200 202 204 209 218 221 209 196 191 190 187 187 191 191 186 178 166 160 160 160 154 2 340 337 354 70 89 92 88 84 83 83 93 101 96 85 86 98 104 103 104 104 102 99 96 94 92 90 90 89 90 92 100 118 128 125 116 105 81 88 81 67 64
175 174 173 170 172 179 183 188 191 192 195 198 199 198 198 198 197 197 197 196 199 199 200 204 209 217 224 220 209 200 197 197 193 192 191 188 183 176 169 166 169 171 188 313 334 45 98 103 96 93 91 88 90 99 106 103 93 90 96 103 105 106 108 106 103 101 97 96 97 96 94 91 91 91 98 117 130 127 118 104 78 88 85 66 63
177 176 176 180 182 182 185 188 190 193 197 198 199 198 197 197 197 199 200 198 197 198 201 206 213 221 223 213 204 200 201 200 196 192 187 182 179 175 173 173 176 187 261 293 155 119 113 106 97 91 91 95 102 110 113 107 99 100 103 105 105 104 104 101 100 101 100 100 101 100 97 95 94 96 104 120 132 130 123 120 103 83 79 72 61
177 180 182 185 185 184 187 189 191 195 197 198 200 199 197 197 197 200 201 199 199 199 203 208 213 219 219 210 205 204 204 201 196 192 187 182 179 178 178 179 184 208 245 232 154 138 118 100 91 87 94 105 110 111 112 113 114 113 111 109 108 107 105 103 103 103 104 105 105 104 103 101 97 97 102 115 131 136 130 128 125 110 75 65 60
178 183 185 187 186 186 188 190 193 196 197 198 200 200 199 198 199 201 202 201 201 201 204 207 210 216 216 211 210 211 210 205 199 194 190 185 183 182 182 183 191 209 215 195 166 155 120 84 78 86 104 116 118 114 111 118 124 121 119 115 113 112 110 110 110 109 109 108 107 107 106 103 100 96 96 99 113 132 142 139 135 133 124 93 61
183 186 186 185 185 189 191 192 193 195 196 199 200 202 202 201 201 202 204 204 203 204 206 207 209 214 216 213 214 217 218 213 204 197 193 190 188 186 187 192 198 208 211 195 178 171 142 64 69 96 117 127 125 117 110 119 127 125 121 118 116 116 114 113 113 111 111 109 108 106 103 101 100 96 92 91 90 100 122 148 150 143 138 130 90
183 185 184 184 186 191 193 194 195 196 197 200 202 203 204 204 204 204 205 206 205 204 205 207 210 213 215 216 218 221 221 218 211 203 197 194 192 190 192 199 206 216 218 201 189 188 185 159 107 117 132 136 132 124 117 123 129 129 127 121 119 119 115 113 113 111 110 109 107 106 104 102 100 96 92 90 87 83 82 90 124 155 152 142 131
177 181 181 185 190 193 194 195 198 198 199 201 202 203 205 207 208 208 209 209 207 205 204 207 210 213 215 218 222 225 221 218 214 210 204 198 194 195 197 203 211 221 222 209 202 204 199 183 144 134 147 153 150 140 133 133 133 131 131 127 125 123 116 114 113 110 109 108 107 107 106 104 100 96 93 88 85 84 79 79 88 117 146 141 132
183 186 189 190 192 195 195 195 196 197 199 201 201 201 204 207 209 210 212 213 212 209 207 207 209 211 215 218 223 227 222 217 214 213 210 204 199 200 202 206 211 218 223 217 213 213 206 194 173 162 170 171 169 159 149 145 138 134 132 129 129 125 116 115 113 111 109 106 107 107 104 102 99 94 90 87 83 82 84 91 100 109 122 133 128
188 189 191 191 190 194 196 196 196 197 198 199 199 202 205 208 210 211 213 214 214 213 211 210 209 211 215 218 222 226 223 219 218 219 217 209 206 206 205 208 213 219 225 223 218 217 212 206 199 193 190 188 183 172 164 158 146 139 136 132 132 127 116 115 115 113 112 107 106 106 103 99 94 90 88 87 86 86 90 98 105 114 118 126 126
195 193 189 189 188 189 190 191 194 195 195 196 198 201 204 207 210 211 213 214 215 216 214 214 213 214 216 219 222 224 223 222 223 225 223 217 214 212 210 213 216 221 229 229 223 220 217 215 213 207 202 200 196 186 178 175 163 150 144 138 136 128 118 121 122 119 117 115 111 107 104 100 94 91 92 89 90 92 96 99 103 111 116 119 124
192 187 183 180 179 181 183 185 190 194 196 196 197 200 203 207 209 210 212 214 216 217 217 217 217 218 219 219 222 223 222 224 227 228 226 222 219 217 217 218 219 223 229 230 227 224 221 220 221 218 215 211 206 201 195 192 187 171 156 149 144 133 123 129 134 130 126 125 121 111 105 104 101 97 96 95 96 97 98 101 101 105 112 115 121
178 169 164 158 162 170 176 183 189 193 196 198 199 201 204 207 209 210 212 214 216 217 218 218 219 221 221 221 223 224 224 226 228 229 227 224 222 220 220 222 222 225 227 228 228 227 223 222 222 222 221 218 215 212 207 203 201 194 180 167 161 151 142 145 144 138 135 131 123 114 109 109 107 102 101 100 101 102 101 103 103 103 106 110 113
165 158 152 155 163 170 177 185 190 193 195 198 200 203 205 208 210 211 213 215 216 218 219 219 220 223 223 223 225 226 227 228 229 230 228 225 223 222 223 224 224 226 226 225 225 226 225 224 225 226 224 222 220 218 215 211 206 202 197 188 179 169 159 156 150 142 137 132 125 118 114 117 116 108 107 105 103 104 104 104 105 105 105 106 105
165 162 160 165 170 174 180 185 191 194 195 197 201 203 206 209 212 214 215 216 216 218 219 220 221 222 224 226 227 227 229 230 231 232 230 226 225 224 225 226 226 226 225 224 225 226 226 227 228 229 228 224 221 220 219 216 209 205 200 193 187 176 165 160 154 149 144 137 134 129 123 125 128 120 116 113 109 108 107 106 106 106 105 104 101
138 142 145 148 149 153 168 181 191 197 198 200 202 204 206 209 212 215 217 217 218 218 219 221 221 223 225 227 228 228 229 231 232 234 233 229 227 227 228 229 228 228 227 226 226 227 227 229 229 229 229 227 224 221 218 215 211 206 201 194 188 177 167 164 160 155 154 149 142 138 135 134 134 130 126 123 119 115 110 107 107 107 107 104 99
144 151 155 153 148 146 157 176 189 195 200 203 204 206 208 210 212 214 216 218 219 219 219 221 221 223 225 227 230 231 231 232 233 235 236 234 231 230 232 232 230 229 231 231 230 229 228 228 228 229 228 226 224 221 218 214 209 204 200 195 189 183 173 166 164 160 157 156 150 144 142 141 137 133 132 131 129 125 119 113 110 109 108 103 100
128 145 153 151 156 166 171 179 186 192 198 203 205 207 209 211 213 214 215 218 219 220 220 221 221 223 225 228 231 232 233 233 234 235 237 236 235 235 236 235 232 232 234 235 235 233 231 228 227 226 226 225 224 223 220 216 211 204 199 196 191 186 180 171 167 163 161 160 157 153 149 146 142 138 137 134 130 128 126 121 118 116 111 107 106
37 57 89 126 156 176 182 186 190 193 197 201 205 208 210 212 213 214 215 218 219 220 221 221 222 225 227 230 231 232 233 234 234 235 236 237 238 238 239 238 236 235 237 237 236 234 232 230 227 225 224 224 224 224 222 219 215 209 201 196 191 186 183 180 174 168 167 165 163 160 156 153 153 151 149 144 137 133 130 125 123 119 110 110 118
20 25 42 84 145 171 186 201 204 203 203 204 206 208 210 214 215 215 216 217 218 219 222 223 225 227 228 230 231 232 233 234 234 235 235 236 238 239 241 241 239 238 238 238 236 235 233 231 229 226 225 225 225 224 221 218 216 211 204 198 192 187 184 185 183 177 173 172 169 166 164 163 164 162 159 154 148 146 142 134 127 117 105 106 122
18 15 16 18 11 3 305 258 241 225 219 215 210 208 209 212 215 218 219 217 216 218 221 224 227 229 229 229 231 232 233 234 234 234 235 236 237 238 240 241 240 238 237 236 235 235 234 232 229 227 226 226 226 225 221 218 214 210 207 202 196 191 187 186 186 183 179 177 175 171 169 169 170 168 164 159 156 154 151 140 127 116 113 113 117
21 18 17 18 11 7 2 347 326 283 249 234 223 217 216 216 217 219 219 217 217 219 222 225 228 229 229 230 230 231 232 233 234 234 235 235 235 236 237 238 239 239 237 235 234 234 234 232 229 227 226 227 227 225 221 217 214 210 208 205 198 194 191 189 187 185 183 182 179 174 171 171 172 171 168 164 162 159 152 142 130 122 121 121 122
20 17 16 14 10 12 11 5 358 347 317 264 238 230 227 225 223 221 219 218 219 220 222 226 228 229 230 230 230 230 231 234 235 234 234 233 233 234 235 236 237 236 234 233 232 233 233 232 230 228 227 227 226 225 221 216 213 210 208 206 201 196 194 191 188 186 186 187 184 178 175 174 173 172 171 170 168 163 154 145 136 128 126 128 131
16 12 11 9 9 11 11 10 8 3 1 344 266 243 235 231 226 222 221 221 221 223 224 227 229 230 231 231 230 231 232 234 235 234 233 232 232 232 233 234 233 233 233 233 232 233 233 233 231 228 226 226 226 225 221 216 212 211 209 205 201 197 194 191 188 187 189 190 188 185 183 180 176 173 174 176 173 166 157 149 140 135 132 134 136
8 4 4 5 7 10 13 15 15 11 12 13 355 279 244 237 231 226 225 223 222 225 228 229 231 232 232 232 231 232 234 235 235 234 233 233 233 232 232 231 230 231 232 232 232 233 233 232 231 227 225 225 225 224 220 216 213 211 207 203 199 196 193 191 188 187 189 191 191 190 189 186 181 177 178 180 177 170 164 156 147 141 139 138 136
5 4 6 10 12 15 19 22 24 22 19 17 13 355 273 244 235 229 229 230 229 230 232 233 234 235 234 234 233 233 235 236 235 233 233 234 235 234 233 230 228 228 228 229 230 232 233 232 229 225 224 224 224 224 220 215 213 210 204 199 197 195 193 191 189 187 188 190 192 193 193 190 187 184 182 181 179 176 170 163 154 148 146 143 139
7 6 4 8 11 13 17 23 26 25 23 24 25 24 14 290 249 235 231 234 237 242 246 245 244 243 241 239 237 236 236 237 236 234 235 236 236 236 235 231 228 227 228 230 232 232 233 231 227 226 225 224 225 225 220 214 212 210 204 199 197 194 191 190 189 188 188 190 192 194 196 194 191 188 185 181 180 180 175 168 161 156 154 151 147
11 12 3 2 8 13 18 23 23 20 19 22 28 34 39 37 15 292 246 245 251 257 259 258 257 256 253 249 244 240 239 239 239 238 238 238 238 238 240 239 236 233 233 234 234 232 231 230 228 228 227 225 225 225 220 213 211 209 204 199 194 190 188 188 189 188 188 190 192 193 196 197 193 188 185 181 180 183 180 173 168 164 161 158 156
12 17 5 3 13 16 18 20 18 17 18 19 22 30 36 38 37 35 22 344 320 312 295 275 269 268 264 258 253 247 244 243 243 244 243 240 237 238 239 239 239 240 240 239 236 232 231 231 230 229 227 225 225 224 220 213 209 208 204 197 192 189 188 188 189 189 187 188 191 192 192 194 193 188 184 180 180 185 183 176 173 172 169 167 171
10 15 6 6 15 18 19 18 15 18 22 21 20 24 26 27 30 28 20 8 357 355 347 320 293 281 272 266 261 254 250 248 247 246 244 241 240 239 237 233 231 232 234 235 234 232 230 231 231 227 225 225 224 224 221 214 210 208 203 196 192 193 192 189 189 190 189 187 188 190 190 190 191 189 183 178 178 182 181 177 177 179 178 178 185
13 17 13 13 17 21 23 21 18 22 26 23 21 21 20 21 22 17 11 8 3 359 360 358 345 325 302 287 277 268 260 254 250 246 242 242 243 241 240 239 236 231 229 229 230 229 227 227 227 225 224 223 222 223 221 215 208 203 199 196 196 197 196 192 189 188 189 188 187 188 189 188 189 187 181 176 174 176 177 178 180 182 183 187 193
19 21 20 21 23 25 26 25 25 28 30 26 22 17 16 16 14 10 10 11 9 3 359 359 1 359 349 332 312 293 278 267 258 250 243 243 244 241 240 244 243 235 227 224 225 224 221 219 222 225 225 221 218 218 218 213 206 202 200 201 201 200 198 196 193 190 190 189 188 189 188 186 186 185 180 176 175 177 179 183 185 187 190 194 193
26 26 27 29 29 28 29 30 31 33 34 31 25 17 13 11 7 3 6 8 8 6 2 358 358 360 0 0 353 332 306 284 269 258 249 248 250 246 240 240 239 231 223 220 220 219 215 212 216 223 222 216 213 214 214 211 207 204 203 203 204 202 201 200 197 194 193 192 191 190 188 186 186 185 182 179 180 182 185 188 190 191 194 193 189
28 29 29 30 31 31 31 30 30 33 34 32 30 24 15 8 3 358 358 0 1 359 358 357 356 354 354 357 0 0 356 336 298 277 268 267 264 254 242 238 236 229 222 220 218 216 212 210 213 218 217 211 209 210 208 206 205 204 202 203 204 203 201 200 197 197 197 197 195 191 189 188 187 185 182 183 185 187 190 193 194 193 193 191 188
26 25 26 29 31 31 29 27 26 27 28 27 27 26 18 11 9 5 356 354 356 356 356 356 354 353 353 353 353 352 352 350 339 325 310 293 279 264 247 238 233 228 224 222 219 216 214 213 215 217 214 207 203 201 199 199 201 201 201 201 201 200 200 202 202 202 202 201 196 191 190 190 189 185 184 186 188 190 194 198 198 194 191 189 187
25 24 26 29 30 29 25 22 20 21 22 21 21 21 18 14 14 13 5 358 355 354 355 356 355 354 354 353 352 350 347 348 348 343 330 308 290 274 257 241 231 226 224 222 219 217 216 216 217 216 211 205 200 195 193 194 195 195 196 196 196 197 199 202 203 204 204 201 196 192 192 191 189 187 188 190 191 193 198 201 198 193 190 187 187
25 27 30 29 26 24 22 19 16 15 17 19 19 18 17 16 15 15 13 9 3 357 353 352 352 353 351 349 347 344 340 338 336 330 323 313 301 287 269 253 242 234 229 224 219 218 219 217 213 208 204 202 199 196 195 193 191 191 192 191 192 196 199 200 202 204 203 200 195 193 191 190 189 188 190 192 194 198 203 202 196 189 185 183 184
23 25 29 28 24 20 19 16 14 13 15 17 19 20 19 17 15 15 15 12 7 360 354 350 347 347 346 342 340 336 331 327 326 323 318 313 306 294 274 260 251 243 237 233 228 227 227 222 214 208 204 200 199 202 201 196 192 191 189 188 192 199 201 201 202 203 200 195 191 189 189 188 187 188 189 191 195 200 201 198 191 184 180 181 185
22 23 25 25 22 19 18 14 12 12 13 14 17 19 19 18 17 15 14 12 8 2 357 354 350 346 343 338 334 332 328 323 322 322 318 312 307 298 281 264 254 246 242 240 238 238 236 229 221 216 211 207 209 210 205 198 194 190 188 192 201 205 203 200 201 202 198 193 188 186 186 186 187 188 190 192 196 197 194 189 185 181 181 184 187
18 19 18 17 17 17 15 11 10 11 11 12 15 18 18 17 17 15 13 12 10 6 0 357 353 348 344 339 332 327 324 322 320 319 315 308 300 293 285 273 261 251 245 244 243 243 242 237 228 222 218 217 219 217 210 203 198 194 193 200 205 204 200 199 202 201 196 191 187 184 185 187 188 190 193 195 196 194 189 184 182 181 185 188 189